Location: Mason Neck State Park
(38.6428°N, 77.1981°W)
Time: 02:20:23
(UTC-05:00)

Cosmos 2278 Rocket - Visible Passes

Search period start: 02 March 2015 00:00
Search period end: 12 March 2015 01:00
Orbit: 839 x 848 km, 71.0° (Epoch: 28 February)

Date Brightness Start Highest point End Pass type
(mag) Time Alt. Az. Time Alt. Az. Time Alt. Az.
02 Mar 4.9 05:16:18 10° SSE 05:20:17 21° ESE 05:24:29 10° NE visible
03 Mar 4.9 05:01:57 10° SE 05:05:49 20° ESE 05:09:54 10° NE visible
04 Mar 4.9 04:47:37 10° SE 04:51:20 19° E 04:55:18 10° ENE visible
05 Mar 4.9 04:33:17 10° SE 04:36:52 18° E 04:40:41 10° ENE visible
06 Mar 4.8 04:18:58 10° SE 04:22:23 17° E 04:26:05 10° ENE visible
06 Mar 2.3 06:00:26 10° SW 06:06:01 60° WNW 06:11:39 10° NNE visible
07 Mar 4.8 04:04:40 10° SE 04:07:55 16° E 04:11:27 10° ENE visible
07 Mar 2.2 05:45:55 10° SSW 05:51:31 63° WNW 05:57:10 10° NNE visible
08 Mar 4.8 04:50:23 10° SE 04:53:27 16° E 04:56:49 10° ENE visible
08 Mar 2.2 06:31:24 10° SSW 06:37:01 66° WNW 06:42:41 10° NNE visible
09 Mar 4.8 04:36:06 10° SE 04:38:59 15° E 04:42:10 10° ENE visible
09 Mar 2.2 06:16:53 10° SSW 06:22:31 69° WNW 06:28:13 10° NNE visible
10 Mar 4.8 04:21:51 10° SE 04:24:30 14° E 04:27:30 10° ENE visible
10 Mar 2.1 06:02:51 12° SSW 06:08:02 72° WNW 06:13:44 10° NNE visible
11 Mar 4.8 04:07:53 11° ESE 04:10:02 13° E 04:12:48 10° ENE visible
11 Mar 2.1 05:49:48 22° SSW 05:53:32 75° WNW 05:59:14 10° NNE visible
